Погода в Березовке

Россия / Саратовская область     51°11′02″N   45°55′05″E
темп.,
°C
ветер,
м/с
пор.,
м/с
влажн.,
%
обл.,
%
осадки,
мм/ч
давл.,
гПа
погр.,
м
7 марта, вс
вс701:00−7сз2290100 0.0 101328
04:00−7з4592100 0.1 1014135
07:00−11зсз599068 0.0 1015222
10:00−9зсз6108543 0.0 1017398
13:00−6з69810 0.0 1016679
16:00−4зюз610755 0.0 10151060
19:00−4ююз71380100 0.0 1012474
22:00−3юз81677100 0.0 1010670
8 марта, пн
пн801:00−3юз81775100 0.0 1007688
04:00−3юз91881100 0.0 1005760
07:00−3зюз8168660 0.0 1005538
10:00−1зюз8138554 0.0 1006847
13:000юз8128598 0.0 1006922
16:00+1юз7138399 0.0 1005908
19:00−1юз61386100 0.0 1005414
22:00−2зсз4889100 0.4 1007361
9 марта, вт
вт901:00−6з458785 0.0 100884
04:00−7зсз498882 0.0 1009213
07:00−10зсз46909 0.0 1010121
10:00−8зсз57875 0.0 1012360
13:00−6зсз56829 0.0 1013572
16:00−5зсз578049 0.0 1014854
19:00−9зсз478772 0.0 1014223
22:00−11сз488771 0.0 1017233
10 марта, ср
ср1001:00−13сз458735 0.0 1017130
04:00−15зсз468817 0.0 1019147
07:00−16зсз57890 0.0 1019193
10:00−15сз58850 0.0 1021473
13:00−13сз68789 0.0 1022744
16:00−14сз687930 0.0 1023761
19:00−16сз698315 0.0 1023409
22:00−18сз58858 0.0 1026298
11 марта, чт
чт1101:00−20сз46880 0.0 1027197
04:00−21сз46890 0.0 1028157
07:00−22сз34880 0.0 1029108
10:00−19сз23800 0.0 1031276
13:00−15зсз23720 0.0 1031452
16:00−12з33710 0.0 1031475
19:00−15зюз34790 0.0 103190
22:00−17зюз22780 0.0 103247